Time,TemperatureF,DewpointF,PressureIn,WindDirection,WindDirectionDegrees,WindSpeedMPH,WindSpeedGustMPH,Humidity,HourlyPrecipIn,Conditions,Clouds,dailyrainin,SoftwareType,DateUTC
2013-05-31 00:01:00,77.6,68.8,30.33,SE,135,0.0,0.0,74,0.00,,,0.00,WUHU21623XXSP,2013-05-31 04:01:00,
2013-05-31 00:02:00,77.6,68.8,30.33,SE,135,0.0,0.0,74,0.00,,,0.00,WUHU21623XXSP,2013-05-31 04:02:00,
2013-05-31 00:07:00,77.6,69.2,30.33,ENE,67,0.0,0.0,75,0.00,,,0.00,WUHU21623XXSP,2013-05-31 04:07:00,
2013-05-31 00:12:00,77.6,69.2,30.33,SSW,202,0.0,0.0,75,0.00,,,0.00,WUHU21623XXSP,2013-05-31 04:12:00,
2013-05-31 00:17:00,77.4,69.0,30.33,East,90,0.0,0.0,75,0.00,,,0.00,WUHU21623XXSP,2013-05-31 04:17:00,
2013-05-31 00:22:00,77.4,69.0,30.33,SE,135,0.0,0.0,75,0.00,,,0.00,WUHU21623XXSP,2013-05-31 04:22:00,
2013-05-31 00:27:00,77.4,69.4,30.33,ESE,112,0.0,0.0,76,0.00,,,0.00,WUHU21623XXSP,2013-05-31 04:27:00,
2013-05-31 00:32:00,77.3,69.3,30.33,ENE,67,0.0,0.0,76,0.00,,,0.00,WUHU21623XXSP,2013-05-31 04:32:00,
2013-05-31 00:37:00,77.1,69.5,30.34,ESE,112,0.0,0.0,77,0.00,,,0.00,WUHU21623XXSP,2013-05-31 04:37:00,
2013-05-31 00:42:00,77.1,69.5,30.34,ESE,112,0.0,0.0,77,0.00,,,0.00,WUHU21623XXSP,2013-05-31 04:42:00,
2013-05-31 00:47:00,77.1,69.5,30.33,ESE,112,0.0,0.0,77,0.00,,,0.00,WUHU21623XXSP,2013-05-31 04:47:00,
2013-05-31 00:52:00,76.9,69.3,30.34,South,180,0.0,0.0,77,0.00,,,0.00,WUHU21623XXSP,2013-05-31 04:52:00,
2013-05-31 00:57:00,76.9,69.3,30.33,SE,135,0.0,0.0,77,0.00,,,0.00,WUHU21623XXSP,2013-05-31 04:57:00,
2013-05-31 01:02:00,76.7,69.1,30.33,SSE,157,0.0,0.0,77,0.00,,,0.00,WUHU21623XXSP,2013-05-31 05:02:00,
2013-05-31 01:07:00,76.7,69.1,30.33,SE,135,0.0,0.0,77,0.00,,,0.00,WUHU21623XXSP,2013-05-31 05:07:00,
2013-05-31 01:12:00,76.7,69.1,30.33,ENE,67,0.0,0.0,77,0.00,,,0.00,WUHU21623XXSP,2013-05-31 05:12:00,
2013-05-31 01:18:00,76.7,69.1,30.33,SSE,157,0.0,0.0,77,0.00,,,0.00,WUHU21623XXSP,2013-05-31 05:18:00,
2013-05-31 01:23:00,76.7,69.1,30.32,ESE,112,0.0,0.0,77,0.00,,,0.00,WUHU21623XXSP,2013-05-31 05:23:00,
2013-05-31 01:28:00,76.5,68.9,30.32,ESE,112,0.0,0.0,77,0.00,,,0.00,WUHU21623XXSP,2013-05-31 05:28:00,
2013-05-31 01:33:00,76.5,69.3,30.32,SSE,157,0.0,0.0,78,0.00,,,0.00,WUHU21623XXSP,2013-05-31 05:33:00,
2013-05-31 01:38:00,76.5,69.3,30.32,SE,135,0.0,0.0,78,0.00,,,0.00,WUHU21623XXSP,2013-05-31 05:38:00,
2013-05-31 01:43:00,76.5,69.3,30.32,SE,135,0.0,0.0,78,0.00,,,0.00,WUHU21623XXSP,2013-05-31 05:43:00,
2013-05-31 01:48:00,76.4,69.2,30.32,ESE,112,0.0,0.0,78,0.00,,,0.00,WUHU21623XXSP,2013-05-31 05:48:00,
2013-05-31 01:53:00,76.4,69.2,30.32,ESE,112,0.0,0.0,78,0.00,,,0.00,WUHU21623XXSP,2013-05-31 05:53:00,
2013-05-31 01:58:00,76.2,69.0,30.32,SE,135,0.0,0.0,78,0.00,,,0.00,WUHU21623XXSP,2013-05-31 05:58:00,
2013-05-31 02:03:00,76.2,69.0,30.32,ENE,67,0.0,0.0,78,0.00,,,0.00,WUHU21623XXSP,2013-05-31 06:03:00,
2013-05-31 02:08:00,76.2,69.0,30.31,SE,135,0.0,0.0,78,0.00,,,0.00,WUHU21623XXSP,2013-05-31 06:08:00,
2013-05-31 02:13:00,76.2,69.0,30.31,East,90,0.0,0.0,78,0.00,,,0.00,WUHU21623XXSP,2013-05-31 06:13:00,
2013-05-31 02:18:00,76.2,69.0,30.30,ESE,112,0.0,0.0,78,0.00,,,0.00,WUHU21623XXSP,2013-05-31 06:18:00,
2013-05-31 02:23:00,76.0,69.1,30.30,ESE,112,0.0,0.0,79,0.00,,,0.00,WUHU21623XXSP,2013-05-31 06:23:00,
2013-05-31 02:28:00,76.0,69.1,30.29,ESE,112,0.0,0.0,79,0.00,,,0.00,WUHU21623XXSP,2013-05-31 06:28:00,
2013-05-31 02:33:00,76.0,69.1,30.30,ENE,67,0.0,0.0,79,0.00,,,0.00,WUHU21623XXSP,2013-05-31 06:33:00,
2013-05-31 02:38:00,75.8,68.9,30.30,ESE,112,0.0,0.0,79,0.00,,,0.00,WUHU21623XXSP,2013-05-31 06:38:00,
2013-05-31 02:43:00,75.8,68.9,30.29,ESE,112,0.0,0.0,79,0.00,,,0.00,WUHU21623XXSP,2013-05-31 06:43:00,
2013-05-31 02:48:00,75.8,68.9,30.29,ENE,67,0.0,0.0,79,0.00,,,0.00,WUHU21623XXSP,2013-05-31 06:48:00,
2013-05-31 02:53:00,75.8,68.9,30.29,ESE,112,0.0,0.0,79,0.00,,,0.00,WUHU21623XXSP,2013-05-31 06:53:00,
2013-05-31 02:58:00,75.8,68.9,30.28,SE,135,0.0,0.0,79,0.00,,,0.00,WUHU21623XXSP,2013-05-31 06:58:00,
2013-05-31 03:03:00,75.6,68.7,30.29,East,90,0.0,0.0,79,0.00,,,0.00,WUHU21623XXSP,2013-05-31 07:03:00,
2013-05-31 03:08:00,75.6,68.7,30.29,ESE,112,0.0,0.0,79,0.00,,,0.00,WUHU21623XXSP,2013-05-31 07:08:00,
2013-05-31 03:13:00,75.6,69.1,30.29,East,90,0.0,0.0,80,0.00,,,0.00,WUHU21623XXSP,2013-05-31 07:13:00,
2013-05-31 03:18:00,75.6,69.1,30.28,ESE,112,0.0,0.0,80,0.00,,,0.00,WUHU21623XXSP,2013-05-31 07:18:00,
2013-05-31 03:23:00,75.6,69.1,30.29,East,90,0.0,0.0,80,0.00,,,0.00,WUHU21623XXSP,2013-05-31 07:23:00,
2013-05-31 03:28:00,75.6,69.1,30.29,ESE,112,0.0,0.0,80,0.00,,,0.00,WUHU21623XXSP,2013-05-31 07:28:00,
2013-05-31 03:33:00,75.5,69.0,30.29,ESE,112,0.0,0.0,80,0.00,,,0.00,WUHU21623XXSP,2013-05-31 07:33:00,
2013-05-31 03:39:00,75.5,69.0,30.29,ENE,67,0.0,0.0,80,0.00,,,0.00,WUHU21623XXSP,2013-05-31 07:39:00,
2013-05-31 03:44:00,75.3,68.8,30.29,SE,135,0.0,0.0,80,0.00,,,0.00,WUHU21623XXSP,2013-05-31 07:44:00,
2013-05-31 03:49:00,75.3,68.8,30.29,ESE,112,0.0,0.0,80,0.00,,,0.00,WUHU21623XXSP,2013-05-31 07:49:00,
2013-05-31 03:54:00,75.3,68.8,30.28,NE,45,0.0,0.0,80,0.00,,,0.00,WUHU21623XXSP,2013-05-31 07:54:00,
2013-05-31 03:59:00,75.3,68.8,30.28,East,90,0.0,0.0,80,0.00,,,0.00,WUHU21623XXSP,2013-05-31 07:59:00,
2013-05-31 04:04:00,75.3,68.8,30.28,SE,135,0.0,0.0,80,0.00,,,0.00,WUHU21623XXSP,2013-05-31 08:04:00,
2013-05-31 04:09:00,75.3,69.2,30.28,ESE,112,0.0,0.0,81,0.00,,,0.00,WUHU21623XXSP,2013-05-31 08:09:00,
2013-05-31 04:14:00,75.3,69.2,30.28,ENE,67,0.0,0.0,81,0.00,,,0.00,WUHU21623XXSP,2013-05-31 08:14:00,
2013-05-31 04:19:00,75.1,69.0,30.28,SSW,202,0.0,0.0,81,0.00,,,0.00,WUHU21623XXSP,2013-05-31 08:19:00,
2013-05-31 04:24:00,75.1,69.0,30.28,East,90,0.0,0.0,81,0.00,,,0.00,WUHU21623XXSP,2013-05-31 08:24:00,
2013-05-31 04:29:00,75.1,69.0,30.28,ESE,112,0.0,0.0,81,0.00,,,0.00,WUHU21623XXSP,2013-05-31 08:29:00,
2013-05-31 04:34:00,75.1,68.6,30.28,SE,135,0.0,0.0,80,0.00,,,0.00,WUHU21623XXSP,2013-05-31 08:34:00,
2013-05-31 04:39:00,75.1,68.6,30.28,ESE,112,0.0,0.0,80,0.00,,,0.00,WUHU21623XXSP,2013-05-31 08:39:00,
2013-05-31 04:44:00,75.1,69.0,30.28,SSE,157,0.0,0.0,81,0.00,,,0.00,WUHU21623XXSP,2013-05-31 08:44:00,
2013-05-31 04:49:00,75.1,69.0,30.28,ENE,67,0.0,0.0,81,0.00,,,0.00,WUHU21623XXSP,2013-05-31 08:49:00,
2013-05-31 04:54:00,74.9,68.8,30.28,ESE,112,0.0,0.0,81,0.00,,,0.00,WUHU21623XXSP,2013-05-31 08:54:00,
2013-05-31 04:59:00,74.9,68.8,30.28,ESE,112,0.0,0.0,81,0.00,,,0.00,WUHU21623XXSP,2013-05-31 08:59:00,
2013-05-31 05:04:00,74.9,68.8,30.28,SSE,157,0.0,0.0,81,0.00,,,0.00,WUHU21623XXSP,2013-05-31 09:04:00,
2013-05-31 05:09:00,74.9,68.8,30.27,SE,135,0.0,0.0,81,0.00,,,0.00,WUHU21623XXSP,2013-05-31 09:09:00,
2013-05-31 05:14:00,74.9,68.8,30.27,East,90,0.0,0.0,81,0.00,,,0.00,WUHU21623XXSP,2013-05-31 09:14:00,
2013-05-31 05:19:00,74.9,68.8,30.28,West,270,0.0,0.0,81,0.00,,,0.00,WUHU21623XXSP,2013-05-31 09:19:00,
2013-05-31 05:24:00,74.9,68.8,30.28,East,90,0.0,0.0,81,0.00,,,0.00,WUHU21623XXSP,2013-05-31 09:24:00,
2013-05-31 05:29:00,74.9,68.8,30.28,ESE,112,0.0,0.0,81,0.00,,,0.00,WUHU21623XXSP,2013-05-31 09:29:00,
2013-05-31 05:34:00,74.9,68.8,30.28,ESE,112,0.0,0.0,81,0.00,,,0.00,WUHU21623XXSP,2013-05-31 09:34:00,
2013-05-31 05:39:00,74.9,68.8,30.28,ENE,67,0.0,0.0,81,0.00,,,0.00,WUHU21623XXSP,2013-05-31 09:39:00,
2013-05-31 05:44:00,74.9,68.8,30.29,NE,45,0.0,0.0,81,0.00,,,0.00,WUHU21623XXSP,2013-05-31 09:44:00,
2013-05-31 05:50:00,74.9,68.8,30.29,ESE,112,0.0,0.0,81,0.00,,,0.00,WUHU21623XXSP,2013-05-31 09:50:00,
2013-05-31 05:55:00,74.9,68.8,30.29,East,90,0.0,0.0,81,0.00,,,0.00,WUHU21623XXSP,2013-05-31 09:55:00,
2013-05-31 06:00:00,74.9,68.8,30.29,ESE,112,0.0,0.0,81,0.00,,,0.00,WUHU21623XXSP,2013-05-31 10:00:00,
2013-05-31 06:05:00,74.9,68.8,30.29,ESE,112,0.0,0.0,81,0.00,,,0.00,WUHU21623XXSP,2013-05-31 10:05:00,
2013-05-31 06:10:00,74.7,68.6,30.29,SSE,157,0.0,0.0,81,0.00,,,0.00,WUHU21623XXSP,2013-05-31 10:10:00,
2013-05-31 06:15:00,74.7,68.9,30.29,ENE,67,0.0,0.0,82,0.00,,,0.00,WUHU21623XXSP,2013-05-31 10:15:00,
2013-05-31 06:20:00,74.7,68.9,30.28,East,90,0.0,0.0,82,0.00,,,0.00,WUHU21623XXSP,2013-05-31 10:20:00,
2013-05-31 06:25:00,74.7,68.9,30.29,SE,135,0.0,0.0,82,0.00,,,0.00,WUHU21623XXSP,2013-05-31 10:25:00,
2013-05-31 06:30:00,74.7,68.9,30.28,SE,135,0.0,0.0,82,0.00,,,0.00,WUHU21623XXSP,2013-05-31 10:30:00,
2013-05-31 06:35:00,74.7,68.9,30.29,ENE,67,0.0,0.0,82,0.00,,,0.00,WUHU21623XXSP,2013-05-31 10:35:00,
2013-05-31 06:40:00,74.7,68.9,30.29,SE,135,0.0,0.0,82,0.00,,,0.00,WUHU21623XXSP,2013-05-31 10:40:00,
2013-05-31 06:45:00,74.7,68.9,30.29,ENE,67,0.0,0.0,82,0.00,,,0.00,WUHU21623XXSP,2013-05-31 10:45:00,
2013-05-31 06:50:00,74.7,68.9,30.30,SE,135,0.0,0.0,82,0.00,,,0.00,WUHU21623XXSP,2013-05-31 10:50:00,
2013-05-31 06:55:00,74.9,69.1,30.29,ESE,112,0.0,0.0,82,0.00,,,0.00,WUHU21623XXSP,2013-05-31 10:55:00,
2013-05-31 07:00:00,74.9,69.1,30.30,SE,135,0.0,0.0,82,0.00,,,0.00,WUHU21623XXSP,2013-05-31 11:00:00,
2013-05-31 07:05:00,74.9,69.1,30.30,SE,135,0.0,0.0,82,0.00,,,0.00,WUHU21623XXSP,2013-05-31 11:05:00,
2013-05-31 07:10:00,74.9,68.8,30.29,ENE,67,0.0,0.0,81,0.00,,,0.00,WUHU21623XXSP,2013-05-31 11:10:00,
2013-05-31 07:15:00,75.3,69.2,30.29,SE,135,0.0,0.0,81,0.00,,,0.00,WUHU21623XXSP,2013-05-31 11:15:00,
2013-05-31 07:20:00,75.6,69.4,30.29,ESE,112,0.0,0.0,81,0.00,,,0.00,WUHU21623XXSP,2013-05-31 11:20:00,
2013-05-31 07:25:00,76.4,69.9,30.29,NE,45,0.0,0.0,80,0.00,,,0.00,WUHU21623XXSP,2013-05-31 11:25:00,
2013-05-31 07:30:00,76.7,69.8,30.29,SE,135,0.0,0.0,79,0.00,,,0.00,WUHU21623XXSP,2013-05-31 11:30:00,
2013-05-31 07:36:00,76.9,70.0,30.30,SE,135,0.0,0.0,79,0.00,,,0.00,WUHU21623XXSP,2013-05-31 11:36:00,
2013-05-31 07:41:00,77.8,70.5,30.30,ENE,67,0.0,0.0,78,0.00,,,0.00,WUHU21623XXSP,2013-05-31 11:41:00,
2013-05-31 07:46:00,79.4,71.0,30.30,SE,135,0.0,0.0,75,0.00,,,0.00,WUHU21623XXSP,2013-05-31 11:46:00,
2013-05-31 07:51:00,78.9,70.1,30.30,ESE,112,0.0,0.0,74,0.00,,,0.00,WUHU21623XXSP,2013-05-31 11:51:00,
2013-05-31 07:56:00,78.0,69.6,30.31,SE,135,0.0,0.0,75,0.00,,,0.00,WUHU21623XXSP,2013-05-31 11:56:00,
2013-05-31 08:01:00,77.4,69.4,30.31,SSE,157,0.0,0.0,76,0.00,,,0.00,WUHU21623XXSP,2013-05-31 12:01:00,
2013-05-31 08:06:00,76.9,69.3,30.31,SSE,157,0.0,0.0,77,0.00,,,0.00,WUHU21623XXSP,2013-05-31 12:06:00,
2013-05-31 08:11:00,76.7,69.5,30.31,East,90,0.0,0.0,78,0.00,,,0.00,WUHU21623XXSP,2013-05-31 12:11:00,
2013-05-31 08:16:00,76.5,69.3,30.31,ESE,112,0.0,0.0,78,0.00,,,0.00,WUHU21623XXSP,2013-05-31 12:16:00,
2013-05-31 08:21:00,76.5,69.3,30.31,ESE,112,0.0,0.0,78,0.00,,,0.00,WUHU21623XXSP,2013-05-31 12:21:00,
2013-05-31 08:26:00,76.5,69.6,30.31,SE,135,0.0,0.0,79,0.00,,,0.00,WUHU21623XXSP,2013-05-31 12:26:00,
2013-05-31 08:31:00,76.5,69.3,30.32,ENE,67,0.0,0.0,78,0.00,,,0.00,WUHU21623XXSP,2013-05-31 12:31:00,
2013-05-31 08:36:00,76.7,69.5,30.31,SE,135,0.0,0.0,78,0.00,,,0.00,WUHU21623XXSP,2013-05-31 12:36:00,
2013-05-31 08:41:00,76.7,69.5,30.31,ESE,112,0.0,0.0,78,0.00,,,0.00,WUHU21623XXSP,2013-05-31 12:41:00,
2013-05-31 08:46:00,76.7,69.5,30.32,ESE,112,0.0,0.0,78,0.00,,,0.00,WUHU21623XXSP,2013-05-31 12:46:00,
2013-05-31 08:51:00,77.1,70.2,30.32,ESE,112,0.0,0.0,79,0.00,,,0.00,WUHU21623XXSP,2013-05-31 12:51:00,
2013-05-31 08:56:00,77.4,70.1,30.32,ESE,112,0.0,0.0,78,0.00,,,0.00,WUHU21623XXSP,2013-05-31 12:56:00,
2013-05-31 09:01:00,77.6,70.3,30.32,ENE,67,0.0,0.0,78,0.00,,,0.00,WUHU21623XXSP,2013-05-31 13:01:00,
2013-05-31 09:06:00,77.6,70.3,30.32,ESE,112,0.0,0.0,78,0.00,,,0.00,WUHU21623XXSP,2013-05-31 13:06:00,
2013-05-31 09:11:00,78.0,70.3,30.32,ESE,112,0.0,0.0,77,0.00,,,0.00,WUHU21623XXSP,2013-05-31 13:11:00,
2013-05-31 09:16:00,78.2,70.5,30.32,SE,135,0.0,0.0,77,0.00,,,0.00,WUHU21623XXSP,2013-05-31 13:16:00,
2013-05-31 09:21:00,78.3,70.6,30.32,ESE,112,0.0,0.0,77,0.00,,,0.00,WUHU21623XXSP,2013-05-31 13:21:00,
2013-05-31 09:26:00,78.7,70.7,30.32,SE,135,0.0,0.0,76,0.00,,,0.00,WUHU21623XXSP,2013-05-31 13:26:00,
2013-05-31 09:31:00,79.2,71.1,30.32,SE,135,0.0,0.0,76,0.00,,,0.00,WUHU21623XXSP,2013-05-31 13:31:00,
2013-05-31 09:36:00,79.4,71.0,30.32,ENE,67,0.0,0.0,75,0.00,,,0.00,WUHU21623XXSP,2013-05-31 13:36:00,
2013-05-31 09:41:00,80.1,71.3,30.32,ESE,112,0.0,0.0,74,0.00,,,0.00,WUHU21623XXSP,2013-05-31 13:41:00,
2013-05-31 09:46:00,80.7,71.4,30.32,SE,135,0.0,0.0,73,0.00,,,0.00,WUHU21623XXSP,2013-05-31 13:46:00,
2013-05-31 09:51:00,80.9,71.6,30.32,SSE,157,0.0,0.0,73,0.00,,,0.00,WUHU21623XXSP,2013-05-31 13:51:00,
2013-05-31 09:56:00,81.0,71.3,30.32,SE,135,0.0,0.0,72,0.00,,,0.00,WUHU21623XXSP,2013-05-31 13:56:00,
2013-05-31 10:01:00,81.2,71.5,30.32,SE,135,0.0,0.0,72,0.00,,,0.00,WUHU21623XXSP,2013-05-31 14:01:00,
2013-05-31 10:06:00,82.3,72.2,30.33,ESE,112,0.0,0.0,71,0.00,,,0.00,WUHU21623XXSP,2013-05-31 14:06:00,
2013-05-31 10:11:00,83.7,72.7,30.32,East,90,0.0,0.0,69,0.00,,,0.00,WUHU21623XXSP,2013-05-31 14:11:00,
2013-05-31 10:16:00,84.6,73.1,30.32,East,90,0.0,0.0,68,0.00,,,0.00,WUHU21623XXSP,2013-05-31 14:16:00,
2013-05-31 10:21:00,85.5,73.1,30.32,NNE,22,0.0,0.0,66,0.00,,,0.00,WUHU21623XXSP,2013-05-31 14:21:00,
2013-05-31 10:26:00,85.4,72.6,30.33,ESE,112,0.0,0.0,65,0.00,,,0.00,WUHU21623XXSP,2013-05-31 14:26:00,
2013-05-31 10:31:00,85.5,72.2,30.33,ESE,112,0.0,0.0,64,0.00,,,0.00,WUHU21623XXSP,2013-05-31 14:31:00,
2013-05-31 10:36:00,86.4,72.6,30.33,ENE,67,0.0,0.0,63,0.00,,,0.00,WUHU21623XXSP,2013-05-31 14:36:00,
2013-05-31 10:41:00,86.4,72.1,30.33,ESE,112,0.0,0.0,62,0.00,,,0.00,WUHU21623XXSP,2013-05-31 14:41:00,
2013-05-31 10:46:00,86.6,72.3,30.33,ESE,112,0.0,0.0,62,0.00,,,0.00,WUHU21623XXSP,2013-05-31 14:46:00,
2013-05-31 10:51:00,87.0,72.2,30.33,SE,135,0.0,0.0,61,0.00,,,0.00,WUHU21623XXSP,2013-05-31 14:51:00,
2013-05-31 10:56:00,87.5,72.7,30.33,SE,135,0.0,0.0,61,0.00,,,0.00,WUHU21623XXSP,2013-05-31 14:56:00,
2013-05-31 11:01:00,88.1,72.8,30.34,ESE,112,0.0,0.0,60,0.00,,,0.00,WUHU21623XXSP,2013-05-31 15:01:00,
2013-05-31 11:06:00,88.2,72.3,30.34,NE,45,0.0,0.0,59,0.00,,,0.00,WUHU21623XXSP,2013-05-31 15:06:00,
2013-05-31 11:11:00,87.7,71.9,30.34,East,90,0.0,0.0,59,0.00,,,0.00,WUHU21623XXSP,2013-05-31 15:11:00,
2013-05-31 11:16:00,86.6,71.3,30.34,ESE,112,0.0,0.0,60,0.00,,,0.00,WUHU21623XXSP,2013-05-31 15:16:00,
2013-05-31 11:21:00,86.4,71.6,30.34,East,90,0.0,0.0,61,0.00,,,0.00,WUHU21623XXSP,2013-05-31 15:21:00,
2013-05-31 11:26:00,86.1,71.8,30.33,ENE,67,0.0,0.0,62,0.00,,,0.00,WUHU21623XXSP,2013-05-31 15:26:00,
2013-05-31 11:31:00,86.1,71.8,30.33,SE,135,0.0,0.0,62,0.00,,,0.00,WUHU21623XXSP,2013-05-31 15:31:00,
2013-05-31 11:36:00,86.4,72.1,30.33,ESE,112,0.0,0.0,62,0.00,,,0.00,WUHU21623XXSP,2013-05-31 15:36:00,
2013-05-31 11:41:00,87.0,72.2,30.33,SE,135,0.0,0.0,61,0.00,,,0.00,WUHU21623XXSP,2013-05-31 15:41:00,
2013-05-31 11:46:00,87.2,71.9,30.33,ESE,112,0.0,0.0,60,0.00,,,0.00,WUHU21623XXSP,2013-05-31 15:46:00,
2013-05-31 11:51:00,87.0,72.2,30.33,ESE,112,0.0,0.0,61,0.00,,,0.00,WUHU21623XXSP,2013-05-31 15:51:00,
2013-05-31 11:56:00,87.7,72.9,30.32,ESE,112,0.0,0.0,61,0.00,,,0.00,WUHU21623XXSP,2013-05-31 15:56:00,
2013-05-31 12:01:00,88.1,72.8,30.32,East,90,0.0,0.0,60,0.00,,,0.00,WUHU21623XXSP,2013-05-31 16:01:00,
2013-05-31 12:06:00,88.2,72.8,30.32,ENE,67,0.0,0.0,60,0.00,,,0.00,WUHU21623XXSP,2013-05-31 16:06:00,
2013-05-31 12:11:00,88.8,72.9,30.32,ESE,112,0.0,0.0,59,0.00,,,0.00,WUHU21623XXSP,2013-05-31 16:11:00,
2013-05-31 12:16:00,89.5,73.1,30.32,ESE,112,0.0,0.0,58,0.00,,,0.00,WUHU21623XXSP,2013-05-31 16:16:00,
2013-05-31 12:21:00,89.7,72.7,30.32,ESE,112,0.0,0.0,57,0.00,,,0.00,WUHU21623XXSP,2013-05-31 16:21:00,
2013-05-31 12:26:00,90.0,73.5,30.32,ENE,67,0.0,0.0,58,0.00,,,0.00,WUHU21623XXSP,2013-05-31 16:26:00,
2013-05-31 12:31:00,90.6,73.6,30.32,ENE,67,0.0,0.0,57,0.00,,,0.00,WUHU21623XXSP,2013-05-31 16:31:00,
2013-05-31 12:36:00,90.9,72.8,30.32,East,90,0.0,0.0,55,0.00,,,0.00,WUHU21623XXSP,2013-05-31 16:36:00,
2013-05-31 12:41:00,91.5,73.3,30.32,ESE,112,0.0,0.0,55,0.00,,,0.00,WUHU21623XXSP,2013-05-31 16:41:00,
2013-05-31 12:46:00,91.3,73.1,30.31,ESE,112,0.0,0.0,55,0.00,,,0.00,WUHU21623XXSP,2013-05-31 16:46:00,
2013-05-31 12:51:00,91.1,72.9,30.32,ESE,112,0.0,0.0,55,0.00,,,0.00,WUHU21623XXSP,2013-05-31 16:51:00,
2013-05-31 12:56:00,90.4,72.3,30.32,ENE,67,0.0,0.0,55,0.00,,,0.00,WUHU21623XXSP,2013-05-31 16:56:00,
2013-05-31 13:01:00,90.8,73.2,30.32,ESE,112,0.0,0.0,56,0.00,,,0.00,WUHU21623XXSP,2013-05-31 17:01:00,
2013-05-31 13:06:00,91.5,72.8,30.32,ESE,112,0.0,0.0,54,0.00,,,0.00,WUHU21623XXSP,2013-05-31 17:06:00,
2013-05-31 13:11:00,91.3,72.6,30.32,ENE,67,0.0,0.0,54,0.00,,,0.00,WUHU21623XXSP,2013-05-31 17:11:00,
2013-05-31 13:16:00,90.4,72.3,30.31,NE,45,0.0,0.0,55,0.00,,,0.00,WUHU21623XXSP,2013-05-31 17:16:00,
2013-05-31 13:21:00,90.2,72.6,30.31,NE,45,0.0,0.0,56,0.00,,,0.00,WUHU21623XXSP,2013-05-31 17:21:00,
2013-05-31 13:26:00,90.9,72.8,30.32,East,90,0.0,0.0,55,0.00,,,0.00,WUHU21623XXSP,2013-05-31 17:26:00,
2013-05-31 13:31:00,90.8,72.7,30.31,ENE,67,0.0,0.0,55,0.00,,,0.00,WUHU21623XXSP,2013-05-31 17:31:00,
2013-05-31 13:36:00,90.8,72.7,30.32,ESE,112,0.0,0.0,55,0.00,,,0.00,WUHU21623XXSP,2013-05-31 17:36:00,
2013-05-31 13:42:00,90.0,72.5,30.31,NE,45,0.0,0.0,56,0.00,,,0.00,WUHU21623XXSP,2013-05-31 17:42:00,
2013-05-31 13:47:00,90.2,72.6,30.31,ENE,67,0.0,0.0,56,0.00,,,0.00,WUHU21623XXSP,2013-05-31 17:47:00,
2013-05-31 13:52:00,90.2,72.6,30.31,ESE,112,0.0,0.0,56,0.00,,,0.00,WUHU21623XXSP,2013-05-31 17:52:00,
2013-05-31 13:57:00,90.6,72.5,30.31,ESE,112,0.0,0.0,55,0.00,,,0.00,WUHU21623XXSP,2013-05-31 17:57:00,
2013-05-31 14:01:00,90.4,72.3,30.30,ESE,112,0.0,0.0,55,0.00,,,0.00,WUHU21623XXSP,2013-05-31 18:01:00,
2013-05-31 14:07:00,91.3,72.6,30.30,SE,135,0.0,0.0,54,0.00,,,0.00,WUHU21623XXSP,2013-05-31 18:07:00,
2013-05-31 14:12:00,92.4,73.6,30.30,SSE,157,0.0,0.0,54,0.00,,,0.00,WUHU21623XXSP,2013-05-31 18:12:00,
2013-05-31 14:17:00,92.4,73.0,30.30,ESE,112,0.0,0.0,53,0.00,,,0.00,WUHU21623XXSP,2013-05-31 18:17:00,
2013-05-31 14:22:00,92.4,72.5,30.30,ESE,112,0.0,0.0,52,0.00,,,0.00,WUHU21623XXSP,2013-05-31 18:22:00,
2013-05-31 14:27:00,91.8,72.5,30.30,ESE,112,0.0,0.0,53,0.00,,,0.00,WUHU21623XXSP,2013-05-31 18:27:00,
2013-05-31 14:32:00,91.3,72.6,30.30,ENE,67,0.0,0.0,54,0.00,,,0.00,WUHU21623XXSP,2013-05-31 18:32:00,
2013-05-31 14:37:00,91.7,72.4,30.29,ESE,112,0.0,0.0,53,0.00,,,0.00,WUHU21623XXSP,2013-05-31 18:37:00,
2013-05-31 14:42:00,92.4,72.5,30.29,SE,135,0.0,0.0,52,0.00,,,0.00,WUHU21623XXSP,2013-05-31 18:42:00,
2013-05-31 14:47:00,92.9,72.9,30.29,East,90,0.0,0.0,52,0.00,,,0.00,WUHU21623XXSP,2013-05-31 18:47:00,
2013-05-31 14:52:00,93.3,72.1,30.29,SE,135,0.0,0.0,50,0.00,,,0.00,WUHU21623XXSP,2013-05-31 18:52:00,
2013-05-31 14:57:00,93.3,72.1,30.29,ENE,67,0.0,0.0,50,0.00,,,0.00,WUHU21623XXSP,2013-05-31 18:57:00,
2013-05-31 15:02:00,93.1,71.9,30.29,SE,135,0.0,0.0,50,0.00,,,0.00,WUHU21623XXSP,2013-05-31 19:02:00,
2013-05-31 15:07:00,93.8,72.6,30.28,SE,135,0.0,0.0,50,0.00,,,0.00,WUHU21623XXSP,2013-05-31 19:07:00,
2013-05-31 15:12:00,94.5,72.6,30.28,SE,135,0.0,0.0,49,0.00,,,0.00,WUHU21623XXSP,2013-05-31 19:12:00,
2013-05-31 15:17:00,94.4,71.9,30.28,NE,45,0.0,0.0,48,0.00,,,0.00,WUHU21623XXSP,2013-05-31 19:17:00,
2013-05-31 15:22:00,92.9,71.7,30.27,ENE,67,0.0,0.0,50,0.00,,,0.00,WUHU21623XXSP,2013-05-31 19:22:00,
2013-05-31 15:27:00,92.4,71.9,30.27,ESE,112,0.0,0.0,51,0.00,,,0.00,WUHU21623XXSP,2013-05-31 19:27:00,
2013-05-31 15:32:00,92.9,72.3,30.27,SE,135,0.0,0.0,51,0.00,,,0.00,WUHU21623XXSP,2013-05-31 19:32:00,
2013-05-31 15:37:00,93.8,72.6,30.27,ESE,112,0.0,0.0,50,0.00,,,0.00,WUHU21623XXSP,2013-05-31 19:37:00,
2013-05-31 15:42:00,93.3,72.1,30.27,East,90,0.0,0.0,50,0.00,,,0.00,WUHU21623XXSP,2013-05-31 19:42:00,
2013-05-31 15:47:00,93.8,72.6,30.27,ENE,67,0.0,0.0,50,0.00,,,0.00,WUHU21623XXSP,2013-05-31 19:47:00,
2013-05-31 15:52:00,93.8,72.6,30.27,ESE,112,0.0,0.0,50,0.00,,,0.00,WUHU21623XXSP,2013-05-31 19:52:00,
2013-05-31 15:57:00,93.3,72.7,30.27,SE,135,0.0,0.0,51,0.00,,,0.00,WUHU21623XXSP,2013-05-31 19:57:00,
2013-05-31 16:02:00,93.8,73.7,30.27,ESE,112,0.0,0.0,52,0.00,,,0.00,WUHU21623XXSP,2013-05-31 20:02:00,
2013-05-31 16:07:00,93.6,73.6,30.27,SE,135,0.0,0.0,52,0.00,,,0.00,WUHU21623XXSP,2013-05-31 20:07:00,
2013-05-31 16:12:00,93.1,73.7,30.27,SE,135,0.0,0.0,53,0.00,,,0.00,WUHU21623XXSP,2013-05-31 20:12:00,
2013-05-31 16:17:00,92.9,74.1,30.27,SSE,157,0.0,0.0,54,0.00,,,0.00,WUHU21623XXSP,2013-05-31 20:17:00,
2013-05-31 16:22:00,91.5,73.3,30.27,South,180,0.0,0.0,55,0.00,,,0.00,WUHU21623XXSP,2013-05-31 20:22:00,
2013-05-31 16:27:00,90.6,73.6,30.27,SSW,202,0.0,0.0,57,0.00,,,0.00,WUHU21623XXSP,2013-05-31 20:27:00,
2013-05-31 16:32:00,90.6,74.1,30.27,ESE,112,0.0,0.0,58,0.00,,,0.00,WUHU21623XXSP,2013-05-31 20:32:00,
2013-05-31 16:37:00,90.2,73.7,30.27,SSW,202,0.0,0.0,58,0.00,,,0.00,WUHU21623XXSP,2013-05-31 20:37:00,
2013-05-31 16:42:00,89.7,73.8,30.27,South,180,0.0,0.0,59,0.00,,,0.00,WUHU21623XXSP,2013-05-31 20:42:00,
2013-05-31 16:47:00,89.1,73.2,30.27,SSW,202,0.0,0.0,59,0.00,,,0.00,WUHU21623XXSP,2013-05-31 20:47:00,
2013-05-31 16:52:00,88.4,73.0,30.27,South,180,0.0,0.0,60,0.00,,,0.00,WUHU21623XXSP,2013-05-31 20:52:00,
2013-05-31 16:57:00,87.7,72.9,30.26,SSE,157,0.0,0.0,61,0.00,,,0.00,WUHU21623XXSP,2013-05-31 20:57:00,
2013-05-31 17:02:00,87.2,72.4,30.26,South,180,0.0,0.0,61,0.00,,,0.00,WUHU21623XXSP,2013-05-31 21:02:00,
2013-05-31 17:07:00,86.4,72.1,30.27,South,180,0.0,0.0,62,0.00,,,0.00,WUHU21623XXSP,2013-05-31 21:07:00,
2013-05-31 17:12:00,85.7,72.4,30.27,ESE,112,0.0,0.0,64,0.00,,,0.00,WUHU21623XXSP,2013-05-31 21:12:00,
2013-05-31 17:17:00,85.2,71.9,30.27,SSE,157,0.0,0.0,64,0.00,,,0.00,WUHU21623XXSP,2013-05-31 21:17:00,
2013-05-31 17:22:00,84.6,71.8,30.26,South,180,0.0,0.0,65,0.00,,,0.00,WUHU21623XXSP,2013-05-31 21:22:00,
2013-05-31 17:27:00,84.3,72.4,30.26,SE,135,0.0,0.0,67,0.00,,,0.00,WUHU21623XXSP,2013-05-31 21:27:00,
2013-05-31 17:32:00,83.7,72.7,30.26,ENE,67,0.0,0.0,69,0.00,,,0.00,WUHU21623XXSP,2013-05-31 21:32:00,
2013-05-31 17:38:00,83.6,72.6,30.26,SSE,157,0.0,0.0,69,0.00,,,0.00,WUHU21623XXSP,2013-05-31 21:38:00,
2013-05-31 17:43:00,83.4,72.4,30.26,SSE,157,0.0,0.0,69,0.00,,,0.00,WUHU21623XXSP,2013-05-31 21:43:00,
2013-05-31 17:48:00,83.6,72.6,30.26,SE,135,0.0,0.0,69,0.00,,,0.00,WUHU21623XXSP,2013-05-31 21:48:00,
2013-05-31 17:53:00,83.6,72.6,30.26,East,90,0.0,0.0,69,0.00,,,0.00,WUHU21623XXSP,2013-05-31 21:53:00,
2013-05-31 17:58:00,83.4,72.4,30.26,SSE,157,0.0,0.0,69,0.00,,,0.00,WUHU21623XXSP,2013-05-31 21:58:00,
2013-05-31 18:03:00,83.4,72.4,30.26,ESE,112,0.0,0.0,69,0.00,,,0.00,WUHU21623XXSP,2013-05-31 22:03:00,
2013-05-31 18:08:00,83.2,72.6,30.25,East,90,0.0,0.0,70,0.00,,,0.00,WUHU21623XXSP,2013-05-31 22:08:00,
2013-05-31 18:13:00,83.4,72.8,30.25,SE,135,0.0,0.0,70,0.00,,,0.00,WUHU21623XXSP,2013-05-31 22:13:00,
2013-05-31 18:18:00,83.4,72.8,30.25,SSE,157,0.0,0.0,70,0.00,,,0.00,WUHU21623XXSP,2013-05-31 22:18:00,
2013-05-31 18:23:00,83.6,73.0,30.26,ESE,112,0.0,0.0,70,0.00,,,0.00,WUHU21623XXSP,2013-05-31 22:23:00,
2013-05-31 18:28:00,83.7,73.1,30.25,SE,135,0.0,0.0,70,0.00,,,0.00,WUHU21623XXSP,2013-05-31 22:28:00,
2013-05-31 18:33:00,83.7,72.7,30.25,East,90,0.0,0.0,69,0.00,,,0.00,WUHU21623XXSP,2013-05-31 22:33:00,
2013-05-31 18:38:00,83.7,72.7,30.26,East,90,0.0,0.0,69,0.00,,,0.00,WUHU21623XXSP,2013-05-31 22:38:00,
2013-05-31 18:43:00,83.7,72.7,30.25,ESE,112,0.0,0.0,69,0.00,,,0.00,WUHU21623XXSP,2013-05-31 22:43:00,
2013-05-31 18:48:00,83.7,72.7,30.26,SE,135,0.0,0.0,69,0.00,,,0.00,WUHU21623XXSP,2013-05-31 22:48:00,
2013-05-31 18:53:00,83.6,72.6,30.26,East,90,0.0,0.0,69,0.00,,,0.00,WUHU21623XXSP,2013-05-31 22:53:00,
2013-05-31 18:58:00,83.6,72.2,30.26,ESE,112,0.0,0.0,68,0.00,,,0.00,WUHU21623XXSP,2013-05-31 22:58:00,
2013-05-31 19:03:00,83.4,72.0,30.26,SE,135,0.0,0.0,68,0.00,,,0.00,WUHU21623XXSP,2013-05-31 23:03:00,
2013-05-31 19:08:00,83.4,72.4,30.26,SE,135,0.0,0.0,69,0.00,,,0.00,WUHU21623XXSP,2013-05-31 23:08:00,
2013-05-31 19:13:00,83.2,72.2,30.26,SE,135,0.0,0.0,69,0.00,,,0.00,WUHU21623XXSP,2013-05-31 23:13:00,
2013-05-31 19:18:00,83.4,72.4,30.27,ESE,112,0.0,0.0,69,0.00,,,0.00,WUHU21623XXSP,2013-05-31 23:18:00,
2013-05-31 19:23:00,83.4,72.0,30.27,SE,135,0.0,0.0,68,0.00,,,0.00,WUHU21623XXSP,2013-05-31 23:23:00,
2013-05-31 19:28:00,83.2,72.2,30.27,ESE,112,0.0,0.0,69,0.00,,,0.00,WUHU21623XXSP,2013-05-31 23:28:00,
2013-05-31 19:33:00,83.0,72.0,30.27,ESE,112,0.0,0.0,69,0.00,,,0.00,WUHU21623XXSP,2013-05-31 23:33:00,
2013-05-31 19:38:00,83.0,72.4,30.27,ESE,112,0.0,0.0,70,0.00,,,0.00,WUHU21623XXSP,2013-05-31 23:38:00,
2013-05-31 19:43:00,83.0,72.4,30.27,ESE,112,0.0,0.0,70,0.00,,,0.00,WUHU21623XXSP,2013-05-31 23:43:00,
2013-05-31 19:48:00,83.0,72.4,30.27,ENE,67,0.0,0.0,70,0.00,,,0.00,WUHU21623XXSP,2013-05-31 23:48:00,
2013-05-31 19:53:00,82.8,72.7,30.27,ESE,112,0.0,0.0,71,0.00,,,0.00,WUHU21623XXSP,2013-05-31 23:53:00,
2013-05-31 19:58:00,82.7,72.2,30.27,SE,135,0.0,0.0,70,0.00,,,0.00,WUHU21623XXSP,2013-05-31 23:58:00,
2013-05-31 20:03:00,82.5,71.5,30.27,ENE,67,0.0,0.0,69,0.00,,,0.00,WUHU21623XXSP,2013-06-01 00:03:00,
2013-05-31 20:08:00,82.3,72.2,30.27,SE,135,0.0,0.0,71,0.00,,,0.00,WUHU21623XXSP,2013-06-01 00:08:00,
2013-05-31 20:13:00,82.1,72.0,30.27,ESE,112,0.0,0.0,71,0.00,,,0.00,WUHU21623XXSP,2013-06-01 00:13:00,
2013-05-31 20:18:00,81.9,71.8,30.27,ESE,112,0.0,0.0,71,0.00,,,0.00,WUHU21623XXSP,2013-06-01 00:18:00,
2013-05-31 20:23:00,81.8,72.1,30.28,SE,135,0.0,0.0,72,0.00,,,0.00,WUHU21623XXSP,2013-06-01 00:23:00,
2013-05-31 20:28:00,81.6,71.9,30.27,ESE,112,0.0,0.0,72,0.00,,,0.00,WUHU21623XXSP,2013-06-01 00:28:00,
2013-05-31 20:33:00,81.2,71.5,30.28,SSE,157,0.0,0.0,72,0.00,,,0.00,WUHU21623XXSP,2013-06-01 00:33:00,
2013-05-31 20:38:00,81.0,71.7,30.28,SE,135,0.0,0.0,73,0.00,,,0.00,WUHU21623XXSP,2013-06-01 00:38:00,
2013-05-31 20:43:00,80.7,71.4,30.29,ESE,112,0.0,0.0,73,0.00,,,0.00,WUHU21623XXSP,2013-06-01 00:43:00,
2013-05-31 20:48:00,80.5,71.6,30.28,South,180,0.0,0.0,74,0.00,,,0.00,WUHU21623XXSP,2013-06-01 00:48:00,
2013-05-31 20:53:00,80.3,71.4,30.28,ENE,67,0.0,0.0,74,0.00,,,0.00,WUHU21623XXSP,2013-06-01 00:53:00,
2013-05-31 20:58:00,80.1,71.3,30.29,ESE,112,0.0,0.0,74,0.00,,,0.00,WUHU21623XXSP,2013-06-01 00:58:00,
2013-05-31 21:03:00,80.1,71.6,30.29,ESE,112,0.0,0.0,75,0.00,,,0.00,WUHU21623XXSP,2013-06-01 01:03:00,
2013-05-31 21:08:00,80.0,71.5,30.29,SSE,157,0.0,0.0,75,0.00,,,0.00,WUHU21623XXSP,2013-06-01 01:08:00,
2013-05-31 21:13:00,80.0,71.9,30.29,SSE,157,0.0,0.0,76,0.00,,,0.00,WUHU21623XXSP,2013-06-01 01:13:00,
2013-05-31 21:18:00,79.8,71.7,30.29,ESE,112,0.0,0.0,76,0.00,,,0.00,WUHU21623XXSP,2013-06-01 01:18:00,
2013-05-31 21:23:00,79.8,72.1,30.29,ENE,67,0.0,0.0,77,0.00,,,0.00,WUHU21623XXSP,2013-06-01 01:23:00,
2013-05-31 21:28:00,79.8,72.1,30.30,SE,135,0.0,0.0,77,0.00,,,0.00,WUHU21623XXSP,2013-06-01 01:28:00,
2013-05-31 21:33:00,79.6,71.9,30.29,East,90,0.0,0.0,77,0.00,,,0.00,WUHU21623XXSP,2013-06-01 01:33:00,
2013-05-31 21:38:00,79.6,71.5,30.30,SE,135,0.0,0.0,76,0.00,,,0.00,WUHU21623XXSP,2013-06-01 01:38:00,
2013-05-31 21:43:00,79.8,71.7,30.30,ESE,112,0.0,0.0,76,0.00,,,0.00,WUHU21623XXSP,2013-06-01 01:43:00,
2013-05-31 21:48:00,79.8,71.7,30.30,East,90,0.0,0.0,76,0.00,,,0.00,WUHU21623XXSP,2013-06-01 01:48:00,
2013-05-31 21:53:00,79.8,71.3,30.30,East,90,0.0,0.0,75,0.00,,,0.00,WUHU21623XXSP,2013-06-01 01:53:00,
2013-05-31 21:58:00,79.8,71.0,30.31,East,90,0.0,0.0,74,0.00,,,0.00,WUHU21623XXSP,2013-06-01 01:58:00,
2013-05-31 22:03:00,79.8,70.6,30.31,ESE,112,0.0,0.0,73,0.00,,,0.00,WUHU21623XXSP,2013-06-01 02:03:00,
2013-05-31 22:08:00,80.0,70.8,30.31,ESE,112,0.0,0.0,73,0.00,,,0.00,WUHU21623XXSP,2013-06-01 02:08:00,
2013-05-31 22:13:00,80.0,70.8,30.31,SE,135,0.0,0.0,73,0.00,,,0.00,WUHU21623XXSP,2013-06-01 02:13:00,
2013-05-31 22:18:00,80.0,70.4,30.31,ENE,67,0.0,0.0,72,0.00,,,0.00,WUHU21623XXSP,2013-06-01 02:18:00,
2013-05-31 22:23:00,79.8,70.2,30.31,NE,45,0.0,0.0,72,0.00,,,0.00,WUHU21623XXSP,2013-06-01 02:23:00,
2013-05-31 22:28:00,79.8,70.6,30.31,SE,135,0.0,0.0,73,0.00,,,0.00,WUHU21623XXSP,2013-06-01 02:28:00,
2013-05-31 22:33:00,79.6,70.4,30.31,ENE,67,0.0,0.0,73,0.00,,,0.00,WUHU21623XXSP,2013-06-01 02:33:00,
2013-05-31 22:38:00,79.4,70.2,30.31,ESE,112,0.0,0.0,73,0.00,,,0.00,WUHU21623XXSP,2013-06-01 02:38:00,
2013-05-31 22:43:00,79.4,70.2,30.31,ESE,112,0.0,0.0,73,0.00,,,0.00,WUHU21623XXSP,2013-06-01 02:43:00,
2013-05-31 22:49:00,79.2,70.4,30.31,ENE,67,0.0,0.0,74,0.00,,,0.00,WUHU21623XXSP,2013-06-01 02:49:00,
2013-05-31 22:54:00,79.2,70.4,30.31,ESE,112,0.0,0.0,74,0.00,,,0.00,WUHU21623XXSP,2013-06-01 02:54:00,
2013-05-31 22:59:00,79.1,70.3,30.31,ENE,67,0.0,0.0,74,0.00,,,0.00,WUHU21623XXSP,2013-06-01 02:59:00,
2013-05-31 23:04:00,78.9,70.1,30.31,East,90,0.0,0.0,74,0.00,,,0.00,WUHU21623XXSP,2013-06-01 03:04:00,
2013-05-31 23:09:00,78.9,70.5,30.31,South,180,0.0,0.0,75,0.00,,,0.00,WUHU21623XXSP,2013-06-01 03:09:00,
2013-05-31 23:14:00,78.7,70.3,30.31,ENE,67,0.0,0.0,75,0.00,,,0.00,WUHU21623XXSP,2013-06-01 03:14:00,
2013-05-31 23:19:00,78.5,70.1,30.31,ESE,112,0.0,0.0,75,0.00,,,0.00,WUHU21623XXSP,2013-06-01 03:19:00,
2013-05-31 23:24:00,78.5,70.5,30.31,ESE,112,0.0,0.0,76,0.00,,,0.00,WUHU21623XXSP,2013-06-01 03:24:00,
2013-05-31 23:29:00,78.3,70.3,30.31,ESE,112,0.0,0.0,76,0.00,,,0.00,WUHU21623XXSP,2013-06-01 03:29:00,
2013-05-31 23:34:00,78.3,70.3,30.31,ESE,112,0.0,0.0,76,0.00,,,0.00,WUHU21623XXSP,2013-06-01 03:34:00,
2013-05-31 23:39:00,78.2,70.2,30.31,ESE,112,0.0,0.0,76,0.00,,,0.00,WUHU21623XXSP,2013-06-01 03:39:00,
2013-05-31 23:44:00,78.2,70.2,30.31,East,90,0.0,0.0,76,0.00,,,0.00,WUHU21623XXSP,2013-06-01 03:44:00,
2013-05-31 23:49:00,78.0,70.3,30.31,ESE,112,0.0,0.0,77,0.00,,,0.00,WUHU21623XXSP,2013-06-01 03:49:00,
2013-05-31 23:54:00,78.0,70.3,30.31,ESE,112,0.0,0.0,77,0.00,,,0.00,WUHU21623XXSP,2013-06-01 03:54:00,
2013-05-31 23:59:00,78.0,70.7,30.30,East,90,0.0,0.0,78,0.00,,,0.00,WUHU21623XXSP,2013-06-01 03:59:00,